FW5145 Weather Reports


Display with metric or nautical units.
time (UTC)temp
F
wind
direction
speed
MPH
gust
MPH
rain 1hr
in
rain 24hr
in
rain mn
in
humidity
%
barometer
mb
20200402071034 41 248 2.0 6.0 0.00 0.00 0.00 65 1016.4
20200402070533 41 254 2.0 6.0 0.00 0.00 0.00 64 1016.4
20200402070145 41 253 1.0 5.0 0.00 0.00 0.00 64 1016.5
20200402065538 41 259 2.0 6.0 0.00 0.00 0.00 64 1016.4
20200402065035 41 248 2.0 6.0 0.00 0.00 0.00 64 1016.5
20200402064038 41 260 3.0 6.0 0.00 0.00 0.00 64 1016.5
20200402063545 41 254 1.0 4.0 0.00 0.00 0.00 64 1016.6
20200402063038 41 254 2.0 5.0 0.00 0.00 0.00 64 1016.5
20200402062534 41 254 2.0 5.0 0.00 0.00 0.00 63 1016.5
20200402062035 41 250 2.0 4.0 0.00 0.00 0.00 63 1016.5
20200402061604 41 248 2.0 5.0 0.00 0.00 0.00 63 1016.5
20200402061047 41 238 2.0 5.0 0.00 0.00 0.00 63 1016.5
20200402060534 41 217 2.0 5.0 0.00 0.00 0.00 63 1016.5
20200402060204 41 248 2.0 5.0 0.00 0.00 0.00 63 1016.5
20200402055533 41 250 1.0 4.0 0.00 0.00 0.00 63 1016.6
20200402055102 41 238 2.0 4.0 0.00 0.00 0.00 63 1016.4
20200402054548 41 238 2.0 4.0 0.00 0.00 0.00 63 1016.5
20200402054035 41 238 1.0 3.0 0.00 0.00 0.00 62 1016.5
20200402053536 41 238 1.0 4.0 0.00 0.00 0.00 62 1016.4
20200402053129 41 238 2.0 4.0 0.00 0.00 0.00 62 1016.5
20200402052534 41 238 2.0 4.0 0.00 0.00 0.00 62 1016.4
20200402052044 41 238 1.0 5.0 0.00 0.00 0.00 62 1016.5
20200402051702 41 238 2.0 5.0 0.00 0.00 0.00 62 1016.4
20200402051032 41 259 2.0 4.0 0.00 0.00 0.00 62 1016.5
20200402050534 41 246 2.0 4.0 0.00 0.00 0.00 62 1016.5
20200402050212 41 265 2.0 4.0 0.00 0.00 0.00 63 1016.5
20200402045541 41 264 1.0 3.0 0.00 0.00 0.00 63 1016.5
20200402045034 41 264 1.0 3.0 0.00 0.00 0.00 63 1016.5
20200402044626 41 264 1.0 3.0 0.00 0.00 0.00 63 1016.5
20200402044034 41 265 1.0 3.0 0.00 0.00 0.00 63 1016.5
20200402043548 41 265 1.0 3.0 0.00 0.00 0.00 62 1016.7
20200402043136 41 0 1.0 3.0 0.00 0.00 0.00 63 1016.6
20200402042536 41 265 1.0 3.0 0.00 0.00 0.00 63 1016.6
20200402042036 41 265 0.0 2.0 0.00 0.00 0.00 63 1016.7
20200402041545 41 265 0.0 3.0 0.00 0.00 0.00 63 1016.6
20200402041036 41 265 1.0 3.0 0.00 0.00 0.00 63 1016.8
20200402040532 41 265 1.0 4.0 0.00 0.00 0.00 63 1016.9
20200402040043 41 265 1.0 4.0 0.00 0.00 0.00 63 1016.9
20200402035549 41 265 1.0 4.0 0.00 0.00 0.00 63 1017.0
20200402035040 41 265 2.0 6.0 0.00 0.00 0.00 63 1017.1
20200402034602 41 0 2.0 6.0 0.00 0.00 0.00 62 1017.2
20200402034033 41 261 2.0 4.0 0.00 0.00 0.00 62 1017.2
20200402033546 41 263 1.0 6.0 0.00 0.00 0.00 62 1017.2
20200402033107 41 263 2.0 6.0 0.00 0.00 0.00 63 1017.3
20200402032542 41 259 2.0 6.0 0.00 0.00 0.00 62 1017.3
20200402032035 41 258 2.0 5.0 0.00 0.00 0.00 63 1017.2
20200402031559 41 259 1.0 5.0 0.00 0.00 0.00 62 1017.2
20200402031038 41 266 2.0 5.0 0.00 0.00 0.00 62 1017.3
20200402030538 41 259 1.0 4.0 0.00 0.00 0.00 62 1017.2
20200402030108 41 259 1.0 4.0 0.00 0.00 0.00 62 1017.3
20200402025534 41 259 2.0 4.0 0.00 0.00 0.00 62 1017.3
20200402025037 41 259 2.0 3.0 0.00 0.00 0.00 62 1017.2
20200402024715 41 259 1.0 3.0 0.00 0.00 0.00 62 1017.3
20200402024032 41 259 1.0 3.0 0.00 0.00 0.00 62 1017.3
20200402023534 41 259 1.0 3.0 0.00 0.00 0.00 62 1017.3
20200402023049 41 0 0.0 3.0 0.00 0.00 0.00 62 1017.4
20200402022550 41 259 0.0 3.0 0.00 0.00 0.00 61 1017.4
20200402022045 41 259 1.0 3.0 0.00 0.00 0.00 61 1017.4
20200402021600 41 259 1.0 3.0 0.00 0.00 0.00 61 1017.5
20200402021032 41 259 1.0 3.0 0.00 0.00 0.00 61 1017.6
20200402020532 41 259 1.0 4.0 0.00 0.00 0.00 61 1017.6
20200402020116 41 262 2.0 4.0 0.00 0.00 0.00 61 1017.7
20200402015538 41 257 2.0 4.0 0.00 0.00 0.00 61 1017.8
20200402015034 41 253 2.0 4.0 0.00 0.00 0.00 61 1017.8
20200402014544 41 252 2.0 4.0 0.00 0.00 0.00 61 1017.7
20200402014051 41 248 1.0 4.0 0.00 0.00 0.00 61 1017.7
20200402013534 41 254 1.0 4.0 0.00 0.00 0.00 61 1017.8
20200402013126 41 249 1.0 4.0 0.00 0.00 0.00 61 1017.8
20200402012536 41 260 1.0 6.0 0.00 0.00 0.00 60 1017.8
20200402012041 41 259 2.0 6.0 0.00 0.00 0.00 60 1017.9
20200402011615 41 260 2.0 4.0 0.00 0.00 0.00 60 1018.0
20200402011035 41 265 1.0 4.0 0.00 0.00 0.00 60 1018.0
20200402010536 41 265 1.0 4.0 0.00 0.00 0.00 60 1018.0
20200402010112 41 266 1.0 3.0 0.00 0.00 0.00 59 1018.2
20200402005535 41 266 1.0 4.0 0.00 0.00 0.00 59 1018.0
20200402005032 41 267 1.0 4.0 0.00 0.00 0.00 59 1018.1
20200402004624 41 254 1.0 4.0 0.00 0.00 0.00 59 1018.2
20200402004038 41 254 1.0 4.0 0.00 0.00 0.00 59 1018.2
20200402003537 41 254 1.0 4.0 0.00 0.00 0.00 59 1018.2
20200402003050 41 253 2.0 4.0 0.00 0.00 0.00 59 1018.2
20200402002534 41 261 2.0 4.0 0.00 0.00 0.00 59 1018.3
20200402002037 42 0 1.0 3.0 0.00 0.00 0.00 59 1018.3
20200402001544 42 0 1.0 4.0 0.00 0.00 0.00 58 1018.3
20200402001036 42 261 2.0 4.0 0.00 0.00 0.00 58 1018.3
20200402000537 42 265 1.0 3.0 0.00 0.00 0.00 58 1018.3
20200402000317 42 265 0.0 4.0 0.00 0.00 0.00 58 1018.3
20200401235559 42 265 2.0 4.0 0.00 0.00 0.00 58 1018.4
20200401235036 42 265 1.0 3.0 0.00 0.00 0.00 58 1018.4
20200401234604 42 265 1.0 3.0 0.00 0.00 0.00 58 1018.4
20200401234034 42 265 1.0 4.0 0.00 0.00 0.00 58 1018.4
20200401233535 42 265 2.0 4.0 0.00 0.00 0.00 58 1018.5
20200401233110 42 265 2.0 4.0 0.00 0.00 0.00 58 1018.5
20200401232539 42 265 1.0 3.0 0.00 0.00 0.00 57 1018.6
20200401232040 42 265 1.0 2.0 0.00 0.00 0.00 57 1018.6
20200401231813 42 265 0.0 2.0 0.00 0.00 0.00 57 1018.6
20200401231104 42 265 1.0 2.0 0.00 0.00 0.00 57 1018.7
20200401230553 42 265 0.0 3.0 0.00 0.00 0.00 57 1018.7
20200401230124 42 265 0.0 3.0 0.00 0.00 0.00 57 1018.6
20200401225536 42 0 0.0 4.0 0.00 0.00 0.00 57 1018.6
20200401225036 42 275 2.0 4.0 0.00 0.00 0.00 57 1018.6
20200401224612 42 283 1.0 3.0 0.00 0.00 0.00 57 1018.8
20200401224039 42 284 1.0 2.0 0.00 0.00 0.00 57 1018.8
20200401223536 42 0 0.0 3.0 0.00 0.00 0.00 57 1018.8
20200401223123 42 0 1.0 3.0 0.00 0.00 0.00 57 1018.7
20200401222539 42 284 0.0 3.0 0.00 0.00 0.00 57 1018.8
20200401222036 42 284 1.0 3.0 0.00 0.00 0.00 57 1018.9
20200401221614 42 284 0.0 3.0 0.00 0.00 0.00 57 1018.8
20200401221036 42 0 0.0 1.0 0.00 0.00 0.00 57 1018.9
20200401220546 42 284 0.0 1.0 0.00 0.00 0.00 57 1019.1
20200401220121 43 0 0.0 2.0 0.00 0.00 0.00 56 1019.1
20200401215533 42 284 0.0 3.0 0.00 0.00 0.00 57 1019.0
20200401215036 43 0 1.0 3.0 0.00 0.00 0.00 57 1019.1
20200401214633 43 284 1.0 3.0 0.00 0.00 0.00 56 1019.1
20200401214036 43 0 0.0 3.0 0.00 0.00 0.00 56 1019.2
20200401213541 43 284 1.0 3.0 0.00 0.00 0.00 56 1019.2
20200401213123 43 302 0.0 3.0 0.00 0.00 0.00 56 1019.2
20200401212536 43 302 1.0 6.0 0.00 0.00 0.00 55 1019.2
20200401212035 43 306 2.0 6.0 0.00 0.00 0.00 55 1019.3
20200401211631 43 287 1.0 3.0 0.00 0.00 0.00 55 1019.3
20200401211035 43 319 1.0 3.0 0.00 0.00 0.00 54 1019.3
20200401210536 43 323 1.0 3.0 0.00 0.00 0.00 53 1019.4
20200401210122 43 336 1.0 3.0 0.00 0.00 0.00 52 1019.3
20200401205534 43 339 0.0 5.0 0.00 0.00 0.00 52 1019.3
20200401205040 43 318 2.0 5.0 0.00 0.00 0.00 52 1019.3
20200401204556 43 348 2.0 5.0 0.00 0.00 0.00 53 1019.3
20200401204049 43 317 1.0 3.0 0.00 0.00 0.00 54 1019.4
20200401203610 43 326 0.0 4.0 0.00 0.00 0.00 54 1019.3
20200401203048 43 330 2.0 4.0 0.00 0.00 0.00 54 1019.3
20200401202541 43 288 2.0 4.0 0.00 0.00 0.00 55 1019.3
20200401202035 43 284 0.0 3.0 0.00 0.00 0.00 55 1019.4
20200401201640 43 284 1.0 3.0 0.00 0.00 0.00 55 1019.3
20200401201037 43 311 1.0 3.0 0.00 0.00 0.00 55 1019.3
20200401200536 43 311 1.0 4.0 0.00 0.00 0.00 54 1019.5
20200401200059 43 321 1.0 4.0 0.00 0.00 0.00 53 1019.4
20200401195534 44 322 2.0 6.0 0.00 0.00 0.00 52 1019.4
20200401195038 43 329 2.0 6.0 0.00 0.00 0.00 52 1019.4
20200401194614 43 20 2.0 5.0 0.00 0.00 0.00 54 1019.5
20200401194033 43 307 2.0 5.0 0.00 0.00 0.00 54 1019.5
20200401193553 43 316 2.0 7.0 0.00 0.00 0.00 54 1019.5
20200401193102 43 293 2.0 7.0 0.00 0.00 0.00 54 1019.6
20200401192542 43 279 1.0 4.0 0.00 0.00 0.00 54 1019.6
20200401192035 43 289 1.0 3.0 0.00 0.00 0.00 54 1019.5
20200401191623 43 292 1.0 3.0 0.00 0.00 0.00 54 1019.6
20200401191038 44 0 1.0 6.0 0.00 0.00 0.00 53 1019.5
20200401190534 44 302 2.0 6.0 0.00 0.00 0.00 53 1019.4
20200401190125 44 279 1.0 4.0 0.00 0.00 0.00 53 1019.5
20200401185536 44 302 1.0 4.0 0.00 0.00 0.00 53 1019.4
20200401185036 44 303 1.0 4.0 0.00 0.00 0.00 53 1019.4
20200401184619 44 303 2.0 4.0 0.00 0.00 0.00 53 1019.4
20200401184036 44 273 1.0 4.0 0.00 0.00 0.00 53 1019.4
20200401183536 44 289 1.0 4.0 0.00 0.00 0.00 52 1019.4
20200401183109 44 291 1.0 4.0 0.00 0.00 0.00 51 1019.5
20200401182540 44 290 1.0 3.0 0.00 0.00 0.00 51 1019.4
20200401182037 44 308 1.0 10.0 0.00 0.00 0.00 51 1019.5
20200401181602 44 348 2.0 10.0 0.00 0.00 0.00 48 1019.5
20200401181035 44 360 3.0 8.0 0.00 0.00 0.00 49 1019.6
20200401180537 44 299 2.0 5.0 0.00 0.00 0.00 48 1019.6
20200401180149 44 315 2.0 4.0 0.00 0.00 0.00 49 1019.7
20200401175542 44 317 1.0 4.0 0.00 0.00 0.00 51 1019.6
20200401175036 45 352 1.0 4.0 0.00 0.00 0.00 50 1019.6
20200401174610 45 0 1.0 5.0 0.00 0.00 0.00 49 1019.6
20200401174036 45 360 2.0 5.0 0.00 0.00 0.00 49 1019.6
20200401173536 45 350 2.0 4.0 0.00 0.00 0.00 51 1019.6
20200401173150 45 350 1.0 3.0 0.00 0.00 0.00 50 1019.7
20200401172536 45 0 1.0 4.0 0.00 0.00 0.00 49 1019.7
20200401172036 45 300 1.0 4.0 0.00 0.00 0.00 50 1019.7
20200401171618 45 304 2.0 5.0 0.00 0.00 0.00 50 1019.7
20200401171111 45 311 2.0 5.0 0.00 0.00 0.00 49 1019.8
20200401170546 45 323 3.0 5.0 0.00 0.00 0.00 49 1019.7
20200401170210 45 319 2.0 7.0 0.00 0.00 0.00 48 1019.7
20200401165533 45 342 3.0 9.0 0.00 0.00 0.00 48 1019.9
20200401165041 45 313 3.0 9.0 0.00 0.00 0.00 48 1020.1
20200401164724 45 319 3.0 7.0 0.00 0.00 0.00 48 1020.0
20200401164037 45 352 3.0 7.0 0.00 0.00 0.00 48 1019.8
20200401163603 45 306 2.0 8.0 0.00 0.00 0.00 48 1020.0
20200401163044 45 277 3.0 8.0 0.00 0.00 0.00 47 1020.2
20200401162545 46 310 3.0 7.0 0.00 0.00 0.00 47 1020.2
20200401162036 46 275 3.0 8.0 0.00 0.00 0.00 49 1020.2
20200401161553 46 298 4.0 8.0 0.00 0.00 0.00 49 1020.2
20200401161048 46 297 4.0 9.0 0.00 0.00 0.00 47 1020.1
20200401160603 46 279 4.0 9.0 0.00 0.00 0.00 47 1020.1
20200401160135 46 275 4.0 10.0 0.00 0.00 0.00 47 1020.1
20200401155548 46 288 5.0 10.0 0.00 0.00 0.00 46 1020.3
20200401155036 46 335 4.0 10.0 0.00 0.00 0.00 46 1020.3
20200401154645 46 327 4.0 9.0 0.00 0.00 0.00 47 1020.2
20200401154039 46 304 4.0 9.0 0.00 0.00 0.00 46 1020.2
20200401153540 46 302 3.0 10.0 0.00 0.00 0.00 48 1020.3
20200401153056 46 327 4.0 10.0 0.00 0.00 0.00 46 1020.3
20200401152536 46 252 5.0 10.0 0.00 0.00 0.00 47 1020.3
20200401152037 46 360 3.0 11.0 0.00 0.00 0.00 49 1020.4
20200401151540 46 286 4.0 11.0 0.00 0.00 0.00 48 1020.4
20200401151037 46 5 6.0 11.0 0.00 0.00 0.00 47 1020.5
20200401150535 46 18 5.0 11.0 0.00 0.00 0.00 48 1020.5
20200401150112 46 11 6.0 11.0 0.00 0.00 0.00 49 1020.6
20200401145536 46 350 5.0 13.0 0.00 0.00 0.00 50 1020.6
20200401145035 47 17 5.0 13.0 0.00 0.00 0.00 49 1020.6
20200401144536 47 342 5.0 11.0 0.00 0.00 0.00 48 1020.7
20200401144043 47 311 5.0 11.0 0.00 0.00 0.00 49 1020.7
20200401143538 47 331 5.0 11.0 0.00 0.00 0.00 47 1020.7
20200401143122 47 30 7.0 11.0 0.00 0.00 0.00 46 1020.9
20200401142534 47 5 3.0 11.0 0.00 0.00 0.00 46 1021.1
20200401142042 47 315 4.0 11.0 0.00 0.00 0.00 45 1021.0
20200401141606 47 352 4.0 9.0 0.00 0.00 0.00 45 1021.1
20200401141042 47 253 4.0 10.0 0.00 0.00 0.00 45 1021.1
20200401140537 47 329 5.0 11.0 0.00 0.00 0.00 45 1020.9
20200401140112 48 325 4.0 11.0 0.00 0.00 0.00 47 1021.1
20200401135535 48 17 6.0 10.0 0.00 0.00 0.00 46 1021.1
20200401135040 47 9 5.0 11.0 0.00 0.00 0.00 47 1021.1
20200401134559 47 17 5.0 11.0 0.00 0.00 0.00 46 1021.0
20200401134036 47 13 5.0 11.0 0.00 0.00 0.00 46 1021.0
20200401133536 48 315 5.0 9.0 0.00 0.00 0.00 45 1021.0
20200401133050 48 303 3.0 8.0 0.00 0.00 0.00 44 1021.0
20200401132537 47 348 1.0 9.0 0.00 0.00 0.00 44 1021.3
20200401132037 47 339 4.0 9.0 0.00 0.00 0.00 44 1021.5
20200401131624 47 360 4.0 10.0 0.00 0.00 0.00 44 1021.5
20200401131036 47 289 2.0 10.0 0.00 0.00 0.00 45 1021.6
20200401130542 48 360 3.0 9.0 0.00 0.00 0.00 46 1021.7
20200401130045 48 270 4.0 9.0 0.00 0.00 0.00 44 1021.6
20200401125537 49 267 5.0 9.0 0.00 0.00 0.00 42 1021.7
20200401125033 49 9 1.0 11.0 0.00 0.00 0.00 43 1021.7
20200401124618 48 306 4.0 11.0 0.00 0.00 0.00 44 1021.8
20200401124034 47 5 4.0 12.0 0.00 0.00 0.00 46 1021.8
20200401123539 47 13 7.0 12.0 0.00 0.00 0.00 45 1021.8
20200401123154 48 25 4.0 10.0 0.00 0.00 0.00 44 1021.9
20200401122535 49 360 4.0 8.0 0.00 0.00 0.00 42 1021.9
20200401122045 49 25 1.0 8.0 0.00 0.00 0.00 41 1021.9
20200401121558 48 109 1.0 8.0 0.00 0.00 0.00 47 1022.0
20200401121038 47 22 2.0 10.0 0.00 0.00 0.00 45 1022.1
20200401120534 47 348 5.0 11.0 0.00 0.00 0.00 43 1022.1
20200401120131 48 26 6.0 11.0 0.00 0.00 0.00 42 1022.2
20200401115537 48 11 1.0 9.0 0.00 0.00 0.00 44 1022.2
20200401115041 48 15 3.0 10.0 0.00 0.00 0.00 44 1022.4
20200401114557 48 57 3.0 10.0 0.00 0.00 0.00 47 1022.4
20200401114035 48 98 2.0 7.0 0.00 0.00 0.00 46 1022.5
20200401113534 47 12 3.0 11.0 0.00 0.00 0.00 45 1022.6
20200401113040 47 53 4.0 12.0 0.00 0.00 0.00 47 1022.6
20200401112534 47 92 4.0 12.0 0.00 0.00 0.00 45 1022.6
20200401112053 48 346 3.0 8.0 0.00 0.00 0.00 45 1022.7
20200401111623 48 30 3.0 8.0 0.00 0.00 0.00 49 1022.8
20200401111034 47 30 2.0 10.0 0.00 0.00 0.00 49 1022.9
20200401110537 47 0 5.0 11.0 0.00 0.00 0.00 48 1023.0
20200401110051 46 322 5.0 12.0 0.00 0.00 0.00 50 1023.0
20200401105536 46 338 7.0 12.0 0.00 0.00 0.00 49 1023.1
20200401105041 45 0 1.0 9.0 0.00 0.00 0.00 50 1023.1
20200401104602 45 0 3.0 10.0 0.00 0.00 0.00 50 1023.0
20200401104036 45 55 5.0 10.0 0.00 0.00 0.00 50 1023.2
20200401103605 45 51 4.0 14.0 0.00 0.00 0.00 52 1023.2
20200401103224 44 16 3.0 14.0 0.00 0.00 0.00 52 1023.2
20200401102537 44 321 7.0 13.0 0.00 0.00 0.00 51 1023.2
20200401102035 44 21 3.0 10.0 0.00 0.00 0.00 53 1023.3
20200401101632 44 5 1.0 11.0 0.00 0.00 0.00 53 1023.4
20200401101036 44 22 5.0 11.0 0.00 0.00 0.00 53 1023.5
20200401100543 44 78 2.0 10.0 0.00 0.00 0.00 55 1023.5
20200401100050 43 30 4.0 10.0 0.00 0.00 0.00 56 1023.6
20200401095535 43 345 2.0 9.0 0.00 0.00 0.00 59 1023.6
20200401095040 43 42 2.0 9.0 0.00 0.00 0.00 58 1023.7
20200401094601 43 17 2.0 8.0 0.00 0.00 0.00 59 1023.8
20200401094035 42 66 2.0 5.0 0.00 0.00 0.00 60 1023.9
20200401093535 42 54 2.0 5.0 0.00 0.00 0.00 61 1024.0
20200401093041 41 42 0.0 5.0 0.00 0.00 0.00 61 1024.1
20200401092536 41 42 1.0 7.0 0.00 0.00 0.00 63 1024.1
20200401092035 41 98 2.0 8.0 0.00 0.00 0.00 61 1024.1
20200401091653 41 19 4.0 8.0 0.00 0.00 0.00 65 1024.2
20200401091033 40 38 1.0 8.0 0.00 0.00 0.00 67 1024.2
20200401090538 40 12 3.0 8.0 0.00 0.00 0.00 67 1024.2
20200401090041 40 5 1.0 8.0 0.00 0.00 0.00 68 1024.2
20200401085542 40 313 3.0 8.0 0.00 0.00 0.00 67 1024.3
20200401085037 40 0 3.0 8.0 0.00 0.00 0.00 68 1024.3
20200401084559 40 12 3.0 8.0 0.00 0.00 0.00 70 1024.4
20200401084034 39 17 2.0 8.0 0.00 0.00 0.00 70 1024.5
20200401083533 39 22 4.0 8.0 0.00 0.00 0.00 70 1024.4
20200401083144 39 5 3.0 8.0 0.00 0.00 0.00 70 1024.5
20200401082544 39 351 2.0 5.0 0.00 0.00 0.00 70 1024.5
20200401082033 38 25 2.0 5.0 0.00 0.00 0.00 71 1024.5
20200401081624 38 12 2.0 5.0 0.00 0.00 0.00 71 1024.5
20200401081035 38 360 1.0 8.0 0.00 0.00 0.00 71 1024.5
20200401080539 38 5 2.0 8.0 0.00 0.00 0.00 71 1024.6
20200401080104 37 17 2.0 7.0 0.00 0.00 0.00 71 1024.6
20200401075535 37 16 3.0 6.0 0.00 0.00 0.00 72 1024.6
20200401075045 37 20 3.0 5.0 0.00 0.00 0.00 72 1024.7
20200401074615 36 338 3.0 5.0 0.00 0.00 0.00 73 1024.6
20200401074033 36 19 3.0 5.0 0.00 0.00 0.00 74 1024.7
20200401073609 35 5 2.0 5.0 0.00 0.00 0.00 76 1024.6
20200401073112 35 11 3.0 5.0 0.00 0.00 0.00 77 1024.6
20200401072548 34 10 3.0 5.0 0.00 0.00 0.00 78 1024.6
20200401072034 34 25 3.0 5.0 0.00 0.00 0.00 80 1024.6
20200401071740 33 22 1.0 4.0 0.00 0.00 0.00 81 1024.6